TimeCDT,TemperatureF,Dew PointF,Humidity,Sea Level PressureIn,VisibilityMPH,Wind Direction,Wind SpeedMPH,Gust SpeedMPH,PrecipitationIn,Events,Conditions,WindDirDegrees,DateUTC
12:53 AM,72.0,64.0,76,29.99,10.0,SSE,16.1,26.5,0.00,,Partly Cloudy,150,2013-09-17 05:53:00
1:53 AM,71.1,63.0,75,29.99,10.0,SSE,13.8,-,N/A,,Mostly Cloudy,150,2013-09-17 06:53:00
2:53 AM,70.0,62.1,76,29.99,10.0,SSE,16.1,-,N/A,,Scattered Clouds,150,2013-09-17 07:53:00
3:53 AM,69.1,62.1,78,29.99,10.0,SSE,8.1,-,N/A,,Mostly Cloudy,150,2013-09-17 08:53:00
4:53 AM,69.1,62.1,78,29.97,10.0,SE,9.2,-,0.00,Rain,Light Rain,140,2013-09-17 09:53:00
5:53 AM,69.1,63.0,81,29.97,10.0,SE,8.1,-,N/A,,Overcast,130,2013-09-17 10:53:00
6:34 AM,69.8,64.4,83,30.11,10.0,ESE,6.9,-,0.00,Rain,Light Rain,110,2013-09-17 11:34:00
6:53 AM,69.1,64.9,87,29.98,10.0,East,8.1,-,0.00,Rain,Light Rain,100,2013-09-17 11:53:00
7:32 AM,69.8,64.4,83,30.12,10.0,ESE,6.9,-,0.00,,Overcast,120,2013-09-17 12:32:00
7:53 AM,69.1,64.9,87,29.99,10.0,Variable,6.9,-,0.00,,Overcast,0,2013-09-17 12:53:00
8:53 AM,71.1,64.9,81,30.00,10.0,ESE,5.8,-,N/A,,Overcast,120,2013-09-17 13:53:00
9:53 AM,72.0,64.9,78,30.02,10.0,SE,9.2,-,N/A,,Scattered Clouds,140,2013-09-17 14:53:00
10:19 AM,73.4,64.4,73,30.15,10.0,SE,10.4,-,N/A,,Overcast,130,2013-09-17 15:19:00
10:40 AM,73.4,64.4,73,30.15,10.0,SE,10.4,-,N/A,,Mostly Cloudy,130,2013-09-17 15:40:00
10:53 AM,73.9,64.0,71,30.02,10.0,SE,11.5,-,N/A,,Mostly Cloudy,140,2013-09-17 15:53:00
11:05 AM,73.4,64.4,73,30.15,10.0,SE,11.5,-,N/A,,Mostly Cloudy,140,2013-09-17 16:05:00
11:17 AM,73.4,64.4,73,30.15,10.0,SE,10.4,-,N/A,,Mostly Cloudy,140,2013-09-17 16:17:00
11:53 AM,75.0,63.0,66,30.02,10.0,SE,12.7,-,0.00,Rain,Light Rain,140,2013-09-17 16:53:00
12:53 PM,75.9,62.1,62,30.01,10.0,SE,13.8,-,0.00,,Overcast,130,2013-09-17 17:53:00
1:53 PM,75.0,63.0,66,29.99,10.0,SE,11.5,-,0.00,Rain,Light Rain,140,2013-09-17 18:53:00
2:53 PM,75.9,61.0,60,29.96,10.0,SE,12.7,20.7,0.00,Rain,Light Rain,140,2013-09-17 19:53:00
3:53 PM,77.0,61.0,58,29.94,10.0,SE,15.0,21.9,0.00,,Overcast,130,2013-09-17 20:53:00
4:53 PM,78.1,61.0,56,29.92,10.0,SE,13.8,-,N/A,,Overcast,140,2013-09-17 21:53:00
5:53 PM,77.0,60.1,56,29.91,10.0,SSE,16.1,23.0,N/A,,Overcast,160,2013-09-17 22:53:00
6:53 PM,75.0,63.0,66,29.91,10.0,SE,13.8,-,N/A,,Overcast,140,2013-09-17 23:53:00
7:53 PM,75.0,63.0,66,29.91,10.0,SE,9.2,-,N/A,,Overcast,140,2013-09-18 00:53:00
8:53 PM,75.0,64.0,69,29.93,10.0,SSE,6.9,-,N/A,,Overcast,150,2013-09-18 01:53:00
9:53 PM,73.9,63.0,68,29.96,10.0,SE,11.5,18.4,N/A,,Overcast,140,2013-09-18 02:53:00
10:53 PM,72.0,64.0,76,29.97,10.0,SSE,13.8,-,N/A,,Overcast,150,2013-09-18 03:53:00
11:53 PM,71.1,64.9,81,29.96,10.0,SE,11.5,19.6,N/A,,Overcast,140,2013-09-18 04:53:00